Flag for Colombia Weather past 2 weeks in Cúcuta, Colombia

Now
82 °F

Passing clouds.


Feels Like: 85 °F
Forecast: 69 / 101 °F
Wind: N/A

Location: San Antonio Del Tachira Airport

Current Time: Aug 3, 2015 at 12:53:14 AM

Latest Report: Aug 2, 2015 at 10:00 PM


Visibility: N/A

Pressure: 29.92 "Hg

Humidity: 62%

Dew point: 68 °F

Location of CúcutaLocation

Historic Weather in Cúcuta — Graph

°F

Cúcuta temperature yesterday

Maximum temperature yesterday: 91 °F (at 3:00 PM)
Minimum temperature yesterday: 82 °F (at 1:00 AM)
Average temperature yesterday: 86 °F

Past Weeks' High & Low Weather Summary

 TemperatureHumidityPressure
High95 °F (Jul 19, 1:00 PM)100% (Jul 19, 5:00 PM)30.07 "Hg (Jul 19, 5:00 PM)
Low72 °F (Jul 23, 7:00 AM)38% (Jul 25, 2:00 PM)29.80 "Hg (Jul 26, 5:00 PM)
Average84 °F58%29.94 "Hg
* Reported Jul 19 8:00 AM — Aug 2 10:00 PM, Cúcuta, Weather by CustomWeather, © 2015

Note: Actual official high and low records may vary slightly from our data, if they occured in-between our weather recording intervals... More about our weather records

Advertising

Cúcuta weather history for previous 24 hours

 ConditionsComfort  
Time TempWeatherWind HumidityBarometerVisibility
10:00 PM
Sun, Aug 2
82 °FPassing clouds.N/A62%29.92 "HgN/A
9:00 PM82 °FPassing clouds.N/A58%29.92 "HgN/A
8:00 PM84 °FPassing clouds.N/A51%29.86 "HgN/A
6:00 PM86 °FPassing clouds.N/A52%29.86 "HgN/A
5:00 PM90 °FScattered clouds.N/A49%29.83 "HgN/A
4:00 PM91 °FScattered clouds.N/A49%29.83 "HgN/A
3:00 PM91 °FScattered clouds.N/A44%29.86 "HgN/A
1:00 PM88 °FScattered clouds.N/A52%29.89 "HgN/A
12:00 PM90 °FScattered clouds.N/A49%29.86 "HgN/A
11:00 AM90 °FScattered clouds.N/A52%29.92 "HgN/A
10:00 AM90 °FScattered clouds.N/A52%29.92 "HgN/A
9:00 AM86 °FPartly sunny.N/A59%29.92 "HgN/A
8:00 AM84 °FWarm.N/A58%29.92 "HgN/A
6:00 AM82 °FScattered clouds.N/A62%29.89 "HgN/A
5:00 AM82 °FPassing clouds.N/A55%29.86 "HgN/A
4:00 AM82 °FPassing clouds.N/A62%29.89 "HgN/A
1:00 AM82 °FPassing clouds.N/A62%29.89 "HgN/A
Weather by CustomWeather, © 2015

See weather overviewHow to use our weather pages